Regional Weather Roundup
Issued by NWS Wilmington, NC

Home | Current Version | Previous Version | Text Only | Print | Product List | Glossary On
Versions: 1 2 3 4 5 6 7 8 9 10 11 12 13 14 15 16 17 18 19 20 21 22 23 24 25 26 27 28 29 30 31 32 33 34 35 36 37 38 39 40 41 42 43 44 45 46 47 48 49 50
727
ASUS42 KILM 241913
RWRILM
RWRILM
REGIONAL HOURLY WEATHER ROUNDUP
NATIONAL WEATHER SERVICE WILMINGTON NC
300 PM EDT SUN JUL 24 2016

NOTE: "FAIR" INDICATES FEW OR NO CLOUDS BELOW 12,000 FEET WITH NO
SIGNIFICANT WEATHER AND/OR OBSTRUCTIONS TO VISIBILITY.

...............WFO WILMINGTON COUNTY WARNING AREA...............

......COASTAL NC AND SC COUNTIES......

CITY           SKY/WX    TMP DP  RH WIND       PRES   REMARKS
WILMINGTON     MOSUNNY   90  76  63 SE8       30.02F HX 101
N MYRTLE BEACH SUNNY     88  78  72 S16       30.03F HX 101
MYRTLE BEACH   MOSUNNY   88  73  62 S15       30.05S HX  96

......INLAND NC AND SC COUNTIES.......

CITY           SKY/WX    TMP DP  RH WIND       PRES   REMARKS
LUMBERTON      SUNNY     94  72  48 VRB5      30.00F HX 102
ELIZABETHTOWN  SUNNY     94  74  50 W8        30.01F HX 104
WHITEVILLE     SUNNY     93  73  51 W3        30.00F HX 102
FLORENCE       MOSUNNY   94  70  45 VRB3      30.01F HX 100
DARLINGTON     SUNNY     92  76  59 SW8       30.01F HX 104
KINGSTREE      FAIR      95  68  41 CALM      30.01F HX  99
HARTSVILLE     FAIR      93  70  46 SW3       30.00F HX  99
BENNETTSVILLE  FAIR      95  75  52 S3        30.00F HX 107
CONWAY         CLOUDY    88  73  62 SE8       30.02S HX  96
GEORGETOWN     FAIR      82  72  69 S12       30.04F
MARION           N/A     91  73  55 N6        30.01F HX 100

....................REST OF NORTH CAROLINA......................

.........EASTERN NC.........

CITY           SKY/WX    TMP DP  RH WIND       PRES   REMARKS
CAPE HATTERAS  SUNNY     89  78  70 SW9       30.03F HX 103
JACKSONVILLE   MOSUNNY   94  74  52 SE5       30.01F HX 104
MOREHEAD CITY  SUNNY     88  78  72 SW13      30.03F HX 101
KENANSVILLE    NOT AVBL
NEW BERN       MOSUNNY   93  75  55 S8        30.02F HX 104
ELIZABETH CITY SUNNY     94  74  52 SW10      29.99F HX 104

.........CENTRAL NC.........

CITY           SKY/WX    TMP DP  RH WIND       PRES   REMARKS
RALEIGH DURHAM PTSUNNY   94  73  50 SE8       30.02F HX 103
ROCKY MOUNT    SUNNY     94  75  54 SW7       30.01F HX 105
ROANOKE RAPIDS NOT AVBL
FAYETTEVILLE   MOSUNNY   95  70  44 SW5       30.01F HX 101
HOFFMAN        SUNNY     94  72  47 S3        30.01F HX 101

.........WESTERN NC.........

CITY           SKY/WX    TMP DP  RH WIND       PRES   REMARKS
CHARLOTTE      PTSUNNY   95  66  38 W7        30.03F HX  98
GREENSBORO     CLOUDY    92  67  43 SE3       30.03F HX  95
HICKORY        NOT AVBL
BOONE          NOT AVBL
ASHEVILLE      NOT AVBL

.....................REST OF SOUTH CAROLINA.....................

.........EASTERN SC.........

CITY           SKY/WX    TMP DP  RH WIND       PRES   REMARKS
CHARLESTON     CLOUDY    92  73  53 S7        30.02F HX 100
BEAUFORT MCAS  MOSUNNY   96  71  44 CALM      30.02F HX 103
HILTON HEAD    MOSUNNY   97  77  52 SE5       30.04F HX 112

.........CENTRAL SC.........

CITY           SKY/WX    TMP DP  RH WIND       PRES   REMARKS
COLUMBIA       LGT RAIN  95  69  42 S6        29.99F HX 100
ORANGEBURG     SUNNY     95  69  42 VRB3      30.01F HX 100
SUMTER SHAW    MOSUNNY   95  70  44 SW3       29.99F HAZE    HX 101

.........WESTERN SC.........

CITY           SKY/WX    TMP DP  RH WIND       PRES   REMARKS
GREENVILLE     NOT AVBL
ROCK HILL      SUNNY     94  68  42 CALM      30.03F HX  98
ANDERSON       MOSUNNY   95  67  39 VRB6      30.03F HX  99
CLEMSON        NOT AVBL
GREENWOOD      MOSUNNY   95  68  41 SW7       30.03F HX  99


...................COASTAL AND OFFSHORE REPORTS..................

................LOCAL PIERS AND NC RESERVE................


STATION/POSITION TIME  SKY/WX   TEMP    WIND        PRES    VSBY
                                AIR SEA DIR/SP/G
                 (UTC)          (F)     (DEG/KT/KT) (MB)    (MI)
JOHNY MRCER PIER 1800            85 84  180/ 16/ 17 1016.3R
NC RESRV MASNBRO NOT AVBL
OCEAN CREST PIER NOT AVBL
SPRINGMAID  PIER 1800            84 84              1017.1F


................COASTAL AND OFFSHORE BUOYS................


STATION/POSITION TIME  SKY/WX   TEMP    WIND        PRES    VSBY
                                AIR SEA DIR/SP/G
                 (UTC)          (F)     (DEG/KT/KT) (MB)    (MI)
DIMNDSHOAL 41025 1850            85 86  230/ 12/ 14 1017.1F
WVE H/P(F/S)=  2/ 8 SWL H/P/D(F/S/D)=  2/120/ 8

CAPE LOOKOUT     1900            87     220/ 10/ 13 1016.8F
ONSLOW BAY 41036 NOT AVBL
ONSLOW BAY 41064 1808            85 85  230/ 10/ 12 1017.6S
ONSLOW BAY 41159 1825               86                N/A
WVE H/P(F/S)=  2/ 8

5SE WRITBC 41038 1808            85 85  210/ 12/ 16 1018.2R
MASNBO INL 41110 1806               85                N/A
WVE H/P(F/S)=  2/ 9

WILM HARBR 41108 1826               87                N/A
WVE H/P(F/S)=  2/ 4

27SE WRITB 41037 1808            85 85  220/  8/ 12 1017.9R
FRYING PAN 41013 1900            85 87  220/  6/  8 1017.1F
SUNST NRSH 41024 1808            85 85  190/ 12/ 16 1017.0F
CAPRS NRSH 41029 1808            84 84  210/ 12/ 16 1017.3F
EDISTO     41004 1850            80 86   90/ 10/ 14 1017.3F
WVE H/P(F/S)=  2/ 8 SWL H/P/D(F/S/D)=  2/120/ 8



..........OFFSHORE BUOYS BEYOND 100 NM OFFSHORE...........
.....IN A TRIANGLE---HAT TO BERMUDA TO BAHAMAS TO HAT.....


STATION/POSITION TIME  SKY/WX   TEMP    WIND        PRES    VSBY
                                AIR SEA DIR/SP/G
                 (UTC)          (F)     (DEG/KT/KT) (MB)    (MI)
150E HAT   41001 NOT AVBL
W BERMUDA  41048 1850            83 86  220/  6/  6 1018.5F
WVE H/P(F/S)=  2/ 8 SWL H/P/D(F/S/D)=  2/120/ 8

ATLANTIC S 41049 1850            84 86  170/  6/  8 1021.7S
WVE H/P(F/S)=  3/ 8 SWL H/P/D(F/S/D)=  3/110/ 8

E BAHAMAS  41046 1900            84 85   90/ 10/ 14 1018.5F
NE BAHAMAS 41047 1900            85 86  200/  4/  8 1018.8F
120E CANVRL41010 1820            85 89   20/  2/  4 1018.4R

END




USA.gov is the U.S. government's official web portal to all federal, state and local government web resources and services.